User: anonymous   Login
Location: Newark
(57.7279°N, 5.6916°W)
Time: 17:53:57
(UTC+00:00)
Language:

N. Korean satellite - Orbit

View from above orbital plane
View from above orbital plane
View from above satellite
View from above satellite

Ground track
Ground track

The orbit data is extracted from the following two-line orbital elements,

1 39026U 12072A   20028.75314175 +.00000732 +00000-0 +28633-4 0  9995
2 39026 097.2181 029.7899 0038402 026.9788 333.3437 15.28301790395752
Epoch (UTC): 28 January 2020 18:04:31
Eccentricity: 0.0038402
inclination: 97.2181°
perigee height: 454 km
apogee height: 507 km
right ascension of ascending node: 29.7899°
argument of perigee: 26.9788°
revolutions per day: 15.28301790
mean anomaly at epoch: 333.3437°
orbit number at epoch: 39575

The dashed part of the orbit path shows where the satellite is in the earth's shadow,  

DLR